TimeMST,TemperatureF,Dew PointF,Humidity,Sea Level PressureIn,VisibilityMPH,Wind Direction,Wind SpeedMPH,Gust SpeedMPH,PrecipitationIn,Events,Conditions,WindDirDegrees,DateUTC
12:53 AM,3.0,-5.1,69,30.27,10.0,Calm,Calm,-,N/A,,Overcast,0,2013-01-14 07:53:00
1:53 AM,7.0,-2.9,64,30.27,10.0,Calm,Calm,-,N/A,,Overcast,0,2013-01-14 08:53:00
2:53 AM,5.0,-2.9,70,30.29,10.0,Calm,Calm,-,N/A,,Overcast,0,2013-01-14 09:53:00
3:53 AM,3.9,-4.0,70,30.29,10.0,SSW,4.6,-,N/A,,Mostly Cloudy,210,2013-01-14 10:53:00
4:53 AM,3.9,-2.9,73,30.30,10.0,Calm,Calm,-,N/A,,Scattered Clouds,0,2013-01-14 11:53:00
5:53 AM,3.0,-5.1,69,30.32,10.0,SSW,4.6,-,N/A,,Clear,210,2013-01-14 12:53:00
6:53 AM,-0.0,-8.0,69,30.35,10.0,South,5.8,-,N/A,,Scattered Clouds,190,2013-01-14 13:53:00
7:53 AM,1.9,-7.1,66,30.35,10.0,SSW,3.5,-,N/A,,Partly Cloudy,210,2013-01-14 14:53:00
8:53 AM,5.0,-5.1,63,30.35,10.0,South,4.6,-,N/A,,Clear,180,2013-01-14 15:53:00
9:53 AM,12.0,-2.0,53,30.31,10.0,SSW,4.6,-,N/A,,Partly Cloudy,200,2013-01-14 16:53:00
10:53 AM,15.8,-0.4,49,30.05,10.0,South,5.8,-,N/A,,Partly Cloudy,170,2013-01-14 17:53:00
11:53 AM,19.4,-0.4,42,30.01,10.0,SSE,8.1,-,N/A,,Clear,150,2013-01-14 18:53:00
12:53 PM,19.9,-0.0,42,30.18,10.0,SSE,10.4,-,N/A,,Clear,150,2013-01-14 19:53:00
1:53 PM,19.9,1.0,44,30.15,10.0,SE,11.5,-,N/A,,Clear,140,2013-01-14 20:53:00
2:53 PM,19.4,-0.4,42,29.95,10.0,ESE,8.1,-,N/A,,Clear,110,2013-01-14 21:53:00
3:53 PM,18.0,1.9,50,30.16,10.0,SSE,9.2,-,N/A,,Clear,150,2013-01-14 22:53:00
4:53 PM,15.1,1.0,54,30.17,10.0,Calm,Calm,-,N/A,,Clear,0,2013-01-14 23:53:00
5:53 PM,12.9,1.0,59,30.20,10.0,North,3.5,-,N/A,,Clear,350,2013-01-15 00:53:00
6:53 PM,10.9,-0.0,61,30.21,10.0,NNW,3.5,-,N/A,,Clear,330,2013-01-15 01:53:00
7:53 PM,10.0,1.9,70,30.20,10.0,Calm,Calm,-,N/A,,Overcast,0,2013-01-15 02:53:00
8:53 PM,10.9,3.9,73,30.21,10.0,Calm,Calm,-,N/A,,Overcast,0,2013-01-15 03:53:00
9:53 PM,12.9,1.9,62,30.17,10.0,SSE,3.5,-,N/A,,Overcast,150,2013-01-15 04:53:00
10:53 PM,12.9,6.1,74,30.14,10.0,SSW,3.5,-,N/A,,Overcast,200,2013-01-15 05:53:00
11:53 PM,17.1,6.1,62,30.13,10.0,Calm,Calm,-,N/A,,Overcast,0,2013-01-15 06:53:00